This is the latest recevied weather packets stored in our database for station/object HB0FL-10. If no packets are shown the sender has not sent any weather packets the latest 10 day(s).
| Time | Temp. | Humidity | Pressure | Rain* | Wind** | Luminosity | Snow |
|---|---|---|---|---|---|---|---|
| 1777082567 | 10.56° C | 25% | 1035 hPa | - | - | - | - |
| 1777080347 | 10.56° C | 24% | 1035.1 hPa | - | - | - | - |
| 1777078133 | 10° C | 24% | 1035.3 hPa | - | - | - | - |
| 1777078127 | 10° C | 24% | 1035.3 hPa | - | - | - | - |
| 1777075913 | 10° C | 24% | 1035.6 hPa | - | - | - | - |
| 1777075907 | 10° C | 24% | 1035.6 hPa | - | - | - | - |
| 1777073694 | 10.56° C | 24% | 1035.7 hPa | - | - | - | - |
| 1777073687 | 10.56° C | 24% | 1035.7 hPa | - | - | - | - |
| 1777071473 | 11.11° C | 24% | 1036 hPa | - | - | - | - |
| 1777071467 | 11.11° C | 24% | 1036 hPa | - | - | - | - |
| 1777069253 | 11.11° C | 24% | 1036.1 hPa | - | - | - | - |
| 1777069247 | 11.11° C | 24% | 1036.1 hPa | - | - | - | - |
| 1777067033 | 11.11° C | 25% | 1036.3 hPa | - | - | - | - |
| 1777067027 | 11.11° C | 25% | 1036.3 hPa | - | - | - | - |
| 1777064814 | 11.11° C | 25% | 1036.3 hPa | - | - | - | - |
| 1777064806 | 11.11° C | 25% | 1036.3 hPa | - | - | - | - |
| 1777062594 | 11.11° C | 25% | 1036.4 hPa | - | - | - | - |
| 1777062586 | 11.11° C | 25% | 1036.4 hPa | - | - | - | - |
| 1777060374 | 11.67° C | 25% | 1036.5 hPa | - | - | - | - |
| 1777060366 | 11.67° C | 25% | 1036.5 hPa | - | - | - | - |
| 1777058153 | 12.22° C | 24% | 1036.3 hPa | - | - | - | - |
| 1777058146 | 12.22° C | 24% | 1036.3 hPa | - | - | - | - |
| 1777055933 | 13.33° C | 21% | 1036.3 hPa | - | - | - | - |
| 1777055926 | 13.33° C | 21% | 1036.3 hPa | - | - | - | - |
* Rain since midnight (hover to see other rain measurements)
** Current wind speed in m/s (hover to see current wind gust speed)